Weather reports worldwide

Advertisment
Pau, France (7610): temperature & dewpoint: 11.01.2021 23:00:00 - 17.01.2021 23:00:00 (CET)Pau, France (7610): temperature 5cm: 11.01.2021 23:00:00 - 17.01.2021 23:00:00 (CET)Pau, France (7610): temperature -20cm & temperature -100cm: 11.01.2021 23:00:00 - 17.01.2021 23:00:00 (CET)Pau, France (7610): wind speed & gusts: 11.01.2021 23:00:00 - 17.01.2021 23:00:00 (CET)Pau, France (7610): wind direction: 11.01.2021 23:00:00 - 17.01.2021 23:00:00 (CET)Pau, France (7610): reduced air pressure: 11.01.2021 23:00:00 - 17.01.2021 23:00:00 (CET)Pau, France (7610): visibility: 11.01.2021 23:00:00 - 17.01.2021 23:00:00 (CET)Pau, France (7610): sunshine duration: 11.01.2021 23:00:00 - 17.01.2021 23:00:00 (CET)Pau, France (7610): precipitation: 11.01.2021 23:00:00 - 17.01.2021 23:00:00 (CET)
Date & Time tt [°C] td [°C] tt 5cm [°C] tt -20cm [°C] tt -100cm [°C] ff [km/h] ff [kn] fx [km/h] fx [kn] dd ppp [hPa] vv [km] sd [min] rr [mm]
17.01.2021 23:00:00 6,1 4,4 4,2 7,7 9,4 4 2 8 5 ENE 1030,9 33 0 0,0
17.01.2021 22:00:00 6,4 4,4 3,6 7,7 9,4 6 3 13 7 NE 1030,8 19 0 0,0
17.01.2021 21:00:00 6,7 5,0 4,3 7,7 9,4 9 5 14 8 NE 1030,7 28 0 0,0
17.01.2021 20:00:00 6,6 5,5 3,1 7,6 9,4 6 3 8 4 NNE 1030,7 39 0 0,0
17.01.2021 19:00:00 7,3 6,1 4,0 7,6 9,4 4 2 10 5 N 1030,4 45 0 0,0
17.01.2021 18:00:00 8,3 7,9 7,9 7,5 9,4 7 4 14 8 NW 1029,7 35 0 0,0
17.01.2021 17:00:00 8,5 8,1 8,5 7,5 9,4 11 6 16 9 WNW 1028,9 12 0 0,0
17.01.2021 16:00:00 8,8 8,2 9,2 7,5 9,4 14 7 20 11 NW 1028,6 2,1 2 0,0
17.01.2021 15:00:00 9,7 9,2 9,7 7,5 9,4 9 5 27 15 NW 1028,0 12 8 0,8
17.01.2021 14:00:00 9,7 9,1 9,9 7,4 9,3 16 9 36 19 NNW 1028,2 2,6 0 0,4
17.01.2021 13:00:00 10,3 9,7 10,3 7,4 9,4 22 12 36 19 W 1028,0 8 0 0,0
17.01.2021 12:00:00 10,4 9,6 9,9 7,4 9,4 24 13 37 20 WSW 1028,1 9 0 0,2
17.01.2021 11:00:00 9,8 8,7 9,3 7,4 9,4 19 10 42 23 WSW 1028,1 8 0 0,2
17.01.2021 10:00:00 10,5 7,6 9,5 7,4 9,3 25 14 40 22 WSW 1027,5 46 0 0,0
17.01.2021 09:00:00 10,1 6,1 8,8 7,4 9,4 21 11 36 19 WSW 1027,3 60 0 0,0
17.01.2021 08:00:00 9,6 5,4 8,2 7,4 9,3 22 12 31 17 WSW 1027,2 60 0 0,0
17.01.2021 07:00:00 9,3 3,7 8,0 7,4 9,3 15 8 23 12 W 1027,3 60 0 0,0
17.01.2021 06:00:00 9,3 1,4 7,8 7,4 9,3 14 8 22 12 WSW 1027,3 60 0 0,0
17.01.2021 05:00:00 9,4 1,1 7,3 7,4 9,3 13 7 19 11 W 1027,5 60 0 0,0
17.01.2021 04:00:00 8,5 1,6 7,2 7,4 9,3 11 6 29 16 WSW 1027,6 60 0 0,0
17.01.2021 03:00:00 8,4 1,1 6,1 7,4 9,4 17 9 28 15 W 1028,5 60 0 0,0
17.01.2021 02:00:00 7,7 1,3 5,7 7,4 9,3 13 7 18 10 WSW 1028,3 60 0 0,0
17.01.2021 01:00:00 7,5 3,0 6,2 7,4 9,2 9 5 18 10 WNW 1028,8 55 0 0,0
17.01.2021 00:00:00 8,7 1,8 5,2 7,4 9,3 14 8 24 13 W 1028,7 60 0 0,0
16.01.2021 23:00:00 6,8 3,4 3,6 7,4 9,3 6 4 15 8 W 1028,8 41 0 0,0
16.01.2021 22:00:00 6,5 3,5 2,7 7,3 9,3 6 3 10 5 SSW 1028,8 19 0 0,0
16.01.2021 21:00:00 6,6 3,7 4,6 7,3 9,3 5 3 8 5 SW 1029,0 19 0 0,0
16.01.2021 20:00:00 7,0 4,1 5,3 7,3 9,3 3 2 4 2 SSW 1029,2 44 0 0,0
16.01.2021 19:00:00 6,9 3,7 5,5 7,2 9,3 0 0 10 5 N 1029,2 40 0 0,0
16.01.2021 18:00:00 7,3 3,7 5,8 7,2 9,3 2 1 10 5 NNW 1028,9 52 0 0,0
16.01.2021 17:00:00 8,1 3,5 8,6 7,2 9,3 0 0 12 6 N 1028,8 47 34 0,0
16.01.2021 16:00:00 8,4 3,4 10,2 7,2 9,3 5 3 15 8 W 1028,8 47 26 0,0
16.01.2021 15:00:00 8,1 3,4 10,2 7,1 9,3 8 5 16 9 W 1029,0 52 3 0,0
16.01.2021 14:00:00 7,8 3,6 10,3 7,2 9,3 8 4 23 13 W 1029,4 50 35 0,0
16.01.2021 13:00:00 7,8 3,3 11,8 7,2 9,3 12 7 19 11 WSW 1030,1 17 60 0,0
16.01.2021 12:00:00 6,1 4,3 9,5 7,2 9,2 0 0 8 5 N 1031,1 31 52 0,0
16.01.2021 11:00:00 4,1 3,4 3,1 7,3 9,3 5 3 11 6 SE 1031,4 22 60 0,0
16.01.2021 10:00:00 1,6 1,6 -2,8 7,3 9,3 8 4 9 5 SE 1031,3 3,0 29 0,0
16.01.2021 09:00:00 -0,5 -0,6 -4,0 7,3 9,3 5 3 8 5 ESE 1031,3 0,3 3 0,0
16.01.2021 08:00:00 -0,1 -0,4 -3,4 7,4 9,3 3 1 10 5 SE 1031,1 0,3 0 0,0
16.01.2021 07:00:00 0,9 0,8 -2,0 7,4 9,2 5 3 9 5 E 1030,7 - 0 0,0
16.01.2021 06:00:00 1,2 0,9 -2,8 7,4 9,3 7 4 13 7 SSE 1030,8 0,2 0 0,0
16.01.2021 05:00:00 1,6 1,2 -2,4 7,4 9,3 10 5 13 7 N 1030,9 4,7 0 0,0
16.01.2021 04:00:00 2,7 2,1 -1,2 7,4 9,3 4 2 5 3 N 1030,9 1,4 0 0,0
16.01.2021 03:00:00 3,9 3,0 -0,2 7,4 9,3 2 1 9 5 NE 1030,7 7 0 0,0
16.01.2021 02:00:00 5,1 4,4 4,0 7,4 9,2 5 3 8 4 NNE 1030,7 15 0 0,0
16.01.2021 01:00:00 5,5 4,0 3,9 7,4 9,2 4 2 8 4 SSW 1030,9 24 0 0,0
16.01.2021 00:00:00 5,3 3,9 3,3 7,4 9,3 3 2 14 8 SW 1031,2 29 0 0,0
15.01.2021 23:00:00 5,7 4,2 4,4 7,4 9,3 9 5 13 7 NW 1031,1 29 0 0,0
15.01.2021 22:00:00 6,0 4,6 3,8 7,4 9,2 7 4 22 12 SW 1030,7 34 0 0,2
15.01.2021 21:00:00 6,7 5,0 4,3 7,3 9,2 13 7 23 12 WSW 1030,4 20 0 0,0
15.01.2021 20:00:00 6,8 5,4 5,0 7,3 9,2 8 4 21 11 SW 1030,1 30 0 0,0
15.01.2021 19:00:00 7,2 6,0 5,7 7,2 9,2 9 5 16 9 SSW 1030,2 34 0 0,0
15.01.2021 18:00:00 7,8 6,1 6,3 7,2 9,3 7 4 13 7 W 1029,6 43 10 0,0
15.01.2021 17:00:00 7,8 5,9 7,0 7,2 9,3 9 5 19 11 NW 1029,2 11 22 0,2
15.01.2021 16:00:00 9,8 6,3 7,4 7,1 9,3 13 7 35 19 W 1028,8 47 34 0,2
15.01.2021 15:00:00 9,3 5,5 8,2 7,1 9,2 13 7 21 12 W 1028,8 19 16 0,0
15.01.2021 14:00:00 8,6 5,3 8,2 7,1 9,2 11 6 19 10 WNW 1029,5 37 0 0,0
15.01.2021 13:00:00 8,7 6,5 9,6 7,0 9,2 11 6 18 10 WNW 1029,7 20 9 0,0
15.01.2021 12:00:00 7,9 7,0 8,0 7,0 9,2 9 5 16 9 WNW 1030,5 39 0 0,2
15.01.2021 11:00:00 7,7 7,1 7,5 7,0 9,2 11 6 24 13 NW 1030,4 5 0 0,8
15.01.2021 10:00:00 7,7 6,9 7,0 7,0 9,2 15 8 28 15 W 1029,9 17 0 0,0
15.01.2021 09:00:00 7,2 6,6 6,3 7,0 9,2 11 6 34 18 WSW 1029,2 25 4 0,4
15.01.2021 08:00:00 7,1 6,7 6,3 7,0 9,2 14 8 20 11 SW 1029,0 37 0 0,0
15.01.2021 07:00:00 7,4 7,1 5,8 7,0 9,2 16 8 23 12 WSW 1028,7 8 0 0,2
15.01.2021 06:00:00 7,1 6,8 5,2 6,9 9,2 13 7 23 12 WSW 1028,6 34 0 0,0
15.01.2021 05:00:00 7,7 7,3 7,1 6,9 9,2 13 7 23 12 W 1028,7 10 0 0,0
15.01.2021 04:00:00 7,6 7,3 6,4 6,9 9,2 12 7 24 13 WSW 1028,6 18 0 0,0
15.01.2021 03:00:00 7,9 7,6 4,6 6,9 9,3 14 7 27 14 WSW 1028,2 20 0 0,0
15.01.2021 02:00:00 7,8 7,0 5,7 6,9 9,2 13 7 22 12 WSW 1028,2 29 0 0,4
15.01.2021 01:00:00 8,6 8,0 7,4 6,8 9,2 11 6 28 15 W 1028,2 18 0 0,0
15.01.2021 00:00:00 8,6 8,0 7,6 6,8 9,2 19 11 33 18 W 1028,3 27 0 0,2
14.01.2021 23:00:00 8,3 7,9 7,5 6,8 9,2 16 9 25 14 W 1028,0 15 0 0,0
14.01.2021 22:00:00 8,4 8,0 7,7 6,8 9,2 16 9 33 18 W 1027,9 8 0 0,2
14.01.2021 21:00:00 8,2 7,6 7,0 6,7 9,2 20 11 32 18 WSW 1027,3 14 0 0,0
14.01.2021 20:00:00 7,6 6,8 6,9 6,7 9,2 11 6 21 11 SW 1027,1 8 0 0,0
14.01.2021 19:00:00 7,5 6,8 7,0 6,6 9,2 9 5 19 10 WSW 1027,2 8 0 0,2
14.01.2021 18:00:00 7,6 6,8 7,1 6,6 9,2 15 8 26 14 SW 1027,5 3,0 0 0,2
14.01.2021 17:00:00 8,6 6,4 8,1 6,6 9,2 16 9 34 18 WSW 1027,7 43 0 0,0
14.01.2021 16:00:00 8,8 6,6 8,7 6,5 9,2 20 11 35 19 W 1027,7 20 0 0,0
14.01.2021 15:00:00 8,9 6,5 8,7 6,5 9,2 18 10 31 17 W 1027,6 13 0 0,0
14.01.2021 14:00:00 8,9 6,9 9,0 6,5 9,2 15 8 26 14 WSW 1028,2 45 0 0,0
14.01.2021 13:00:00 8,6 6,7 8,7 6,5 9,2 20 11 29 15 SW 1029,0 28 2 0,0
14.01.2021 12:00:00 7,7 6,2 8,2 6,5 9,3 12 6 21 12 SW 1030,1 17 0 0,0
14.01.2021 11:00:00 7,5 5,3 7,2 6,4 9,3 5 3 8 5 SSW 1030,4 55 0 0,0
14.01.2021 10:00:00 6,8 5,1 5,0 6,4 9,2 4 2 20 11 E 1030,0 60 0 0,0
14.01.2021 09:00:00 5,9 4,9 5,2 6,4 9,3 4 2 12 6 SSW 1029,9 60 0 0,0
14.01.2021 08:00:00 5,8 5,4 5,0 6,4 9,3 3 2 8 5 S 1029,8 46 0 0,0
14.01.2021 07:00:00 5,9 5,5 5,0 6,4 9,3 4 2 13 7 SE 1029,7 59 0 0,0
14.01.2021 06:00:00 6,3 6,0 5,8 6,3 9,3 11 6 16 9 S 1029,8 34 0 0,0
14.01.2021 05:00:00 6,6 6,3 5,9 6,3 9,3 9 5 14 8 S 1030,2 25 0 0,2
14.01.2021 04:00:00 6,9 6,6 6,0 6,3 9,3 10 5 14 7 WSW 1030,8 1,4 0 0,2
14.01.2021 03:00:00 6,7 6,3 5,3 6,2 9,3 3 1 8 5 SW 1031,0 8 0 0,0
14.01.2021 02:00:00 6,5 5,9 5,1 6,2 9,3 2 1 12 7 NE 1031,1 18 0 0,0
14.01.2021 01:00:00 7,1 6,4 5,1 6,2 9,3 5 3 10 5 SSE 1031,4 19 0 0,0
14.01.2021 00:00:00 7,4 6,7 6,2 6,1 9,3 2 1 5 3 SW 1031,7 12 0 0,0
13.01.2021 23:00:00 7,6 6,8 6,5 6,1 9,3 4 2 8 5 SSW 1031,5 17 0 0,0
13.01.2021 22:00:00 7,6 6,8 6,7 6,0 9,3 6 3 11 6 WSW 1031,4 23 0 0,0
13.01.2021 21:00:00 7,9 7,0 7,0 6,0 9,4 7 4 15 8 SW 1031,2 24 0 0,0
13.01.2021 20:00:00 8,0 7,1 7,3 5,9 9,3 6 3 16 9 WSW 1031,1 32 0 0,0
13.01.2021 19:00:00 8,2 7,1 7,6 5,9 9,3 11 6 21 11 SW 1031,0 45 0 0,0
13.01.2021 18:00:00 8,8 7,2 8,1 5,8 9,4 12 7 19 11 WSW 1030,9 57 0 0,0
13.01.2021 17:00:00 9,3 7,4 9,0 5,7 9,4 10 5 17 9 W 1030,5 60 11 0,0
13.01.2021 16:00:00 9,8 7,4 10,3 5,7 9,4 13 7 23 13 W 1030,5 57 3 0,0
13.01.2021 15:00:00 9,8 7,0 9,8 5,6 9,4 14 8 23 12 W 1030,4 43 21 0,0
13.01.2021 14:00:00 10,2 8,3 9,8 5,5 9,4 17 9 22 12 W 1030,5 44 16 0,0
13.01.2021 13:00:00 9,7 7,6 10,7 5,5 9,4 18 10 26 14 W 1031,3 13 32 0,0
13.01.2021 12:00:00 9,1 8,2 8,8 5,4 9,4 13 7 22 12 WSW 1032,3 35 15 0,0
13.01.2021 11:00:00 7,7 7,3 7,5 5,4 9,4 13 7 21 12 SW 1032,5 11 0 0,0
13.01.2021 10:00:00 6,9 6,6 6,4 5,4 9,4 9 5 16 9 SW 1032,1 18 0 0,0
13.01.2021 09:00:00 6,6 6,2 5,5 5,4 9,4 6 3 13 7 SSW 1031,7 3,5 0 0,0
13.01.2021 08:00:00 6,4 5,7 5,5 5,3 9,4 7 4 17 9 SW 1031,2 49 0 0,0
13.01.2021 07:00:00 6,5 5,9 5,9 5,2 9,4 9 5 16 9 SW 1031,2 50 0 0,0
13.01.2021 06:00:00 6,4 6,0 5,5 5,2 9,4 11 6 21 12 SSW 1031,2 55 0 0,0
13.01.2021 05:00:00 6,3 6,0 5,5 5,2 9,4 12 6 21 12 SSW 1031,4 58 0 0,0
13.01.2021 04:00:00 6,3 6,0 5,7 5,2 9,4 11 6 19 10 SSW 1031,4 19 0 0,0
13.01.2021 03:00:00 6,0 5,7 5,4 5,2 9,5 11 6 21 11 SW 1031,2 9 0 0,2
13.01.2021 02:00:00 5,8 5,5 5,0 5,1 9,5 12 7 18 10 SSW 1030,9 15 0 0,0
13.01.2021 01:00:00 5,7 5,1 5,2 5,1 9,4 10 5 19 10 SW 1031,6 7 0 0,0
13.01.2021 00:00:00 6,0 4,6 5,3 5,1 9,5 13 7 21 12 SSW 1031,7 9 0 0,0
12.01.2021 23:00:00 6,3 3,8 4,7 5,0 9,5 13 7 22 12 SSW 1031,4 58 0 0,0
12.01.2021 22:00:00 6,0 3,3 4,7 5,0 9,5 4 2 15 8 SW 1031,4 19 0 0,0
12.01.2021 21:00:00 6,6 2,5 5,5 5,0 9,5 12 7 24 13 S 1031,1 60 0 0,0
12.01.2021 20:00:00 6,3 2,0 5,2 5,0 9,5 16 9 29 15 SSW 1030,7 60 0 0,0
12.01.2021 19:00:00 6,6 1,3 5,4 4,9 9,5 10 5 18 10 SSW 1030,7 59 0 0,0
12.01.2021 18:00:00 6,8 1,1 5,6 4,9 9,5 11 6 24 13 SW 1030,1 60 0 0,0
12.01.2021 17:00:00 7,5 1,3 6,8 4,9 9,5 16 8 26 14 SSW 1030,0 55 14 0,0
12.01.2021 16:00:00 7,7 0,4 8,2 4,9 9,5 12 6 25 14 SSW 1029,7 59 19 0,0
12.01.2021 15:00:00 7,3 0,3 7,2 4,9 9,5 14 8 28 15 SSW 1029,4 39 0 0,0
12.01.2021 14:00:00 6,3 -0,7 5,2 5,0 9,5 15 8 23 12 S 1030,3 44 0 0,0
12.01.2021 13:00:00 4,0 0,3 3,1 5,0 9,5 7 4 15 8 S 1031,3 38 0 0,0
12.01.2021 12:00:00 2,4 -1,0 1,7 5,0 9,5 10 5 18 10 SE 1032,1 25 0 0,0
12.01.2021 11:00:00 0,8 -1,9 -0,5 5,0 9,6 6 3 13 7 SE 1032,3 31 0 0,0
12.01.2021 10:00:00 -0,6 -3,0 -3,1 5,1 9,5 11 6 16 9 SE 1031,7 31 0 0,0
12.01.2021 09:00:00 -2,0 -4,2 -5,1 5,1 9,6 5 3 15 8 SE 1031,4 32 0 0,0
12.01.2021 08:00:00 -2,2 -4,5 -3,9 5,1 9,5 14 7 18 10 SE 1031,0 33 0 0,0
12.01.2021 07:00:00 -2,9 -4,9 -7,0 5,2 9,6 11 6 14 8 ESE 1031,0 31 0 0,0
12.01.2021 06:00:00 -3,4 -5,3 -7,6 5,2 9,6 11 6 14 7 SE 1030,9 22 0 0,0
12.01.2021 05:00:00 -3,4 -5,0 -7,8 5,2 9,6 8 5 10 5 SE 1030,9 20 0 0,0
12.01.2021 04:00:00 -3,1 -4,8 -6,9 5,3 9,6 6 4 9 5 ESE 1030,9 21 0 0,0
12.01.2021 03:00:00 -2,6 -4,3 -5,5 5,3 9,6 8 4 11 6 ESE 1030,9 17 0 0,0
12.01.2021 02:00:00 -2,6 -4,2 -5,6 5,4 9,6 6 4 13 7 ESE 1030,5 12 0 0,0
12.01.2021 01:00:00 -2,6 -3,7 -6,0 5,4 9,6 8 4 11 6 E 1030,6 8 0 0,0
12.01.2021 00:00:00 -2,6 -3,6 -6,1 5,4 9,6 9 5 11 6 SE 1030,6 6 0 0,0
11.01.2021 23:00:00 -2,4 -3,2 -6,0 5,4 9,7 8 5 12 6 SE 1030,7 6 0 0,0

tt = temperature
td = dewpoint
tt 5cm = temperature 5cm
tt -20cm = temperature -20cm
tt -100cm = temperature -100cm
ff = wind speed
fx = gusts
dd = wind direction
ppp = reduced air pressure
vv = visibility
sd = sunshine duration
rr = precipitation

Next stations